Flag for Germany Weather past 2 weeks in Solingen, North Rhine-Westphalia, Germany

Now
37 °F

Partly sunny.


Feels Like: 33 °F
Forecast: 30 / 36 °F
Wind: 6 mph from Southeast

Location: Duesseldorf

Current Time: Feb 1, 2015 at 3:05:28 PM

Latest Report: Feb 1, 2015 at 2:20 PM


Visibility: N/A

Pressure: 29.24 "Hg

Humidity: 93%

Dew point: 36 °F

Location of SolingenLocation

Historic Weather in Solingen — Graph

°F

Solingen temperature yesterday

Maximum temperature yesterday: 41 °F (at 1:20 PM)
Minimum temperature yesterday: 30 °F (at 8:20 PM)
Average temperature yesterday: 35 °F

Past Weeks' High & Low Weather Summary

 TemperatureHumidityPressure
High45 °F (Jan 26, 5:50 PM)100% (Jan 20, 4:50 AM)30.42 "Hg (Jan 20, 4:50 AM)
Low25 °F (Jan 25, 2:20 AM)52% (Jan 21, 1:20 PM)28.71 "Hg (Jan 29, 11:20 PM)
Average35 °F85%29.80 "Hg
* Reported Jan 17 1:20 PM — Feb 1 1:50 PM, Solingen, Weather by CustomWeather, © 2014

Note: Actual official high and low records may vary slightly from our data, if they occured in-between our weather recording intervals... More about our weather records

Advertising

Solingen weather history for previous 24 hours

 ConditionsComfort  
Time TempWeatherWind HumidityBarometerVisibility
1:50 PM
Feb 1
39 °FBroken clouds.5 mph87%29.24 "HgN/A
1:20 PM37 °FBroken clouds.5 mph93%29.24 "HgN/A
12:50 PM37 °FPartly sunny.6 mph93%29.24 "Hg6 mi
12:20 PM36 °FPartly sunny.8 mph100%29.24 "Hg4 mi
11:50 AM36 °FPartly sunny.7 mph93%29.21 "Hg4 mi
11:20 AM34 °FDrizzle. Fog.7 mph100%29.21 "Hg2 mi
10:50 AM34 °FDrizzle. Fog.10 mph100%29.21 "Hg2 mi
10:20 AM34 °FDrizzle. Fog.10 mph100%29.21 "Hg1 mi
9:50 AM36 °FLight rain. Partly sunny.12 mph87%29.18 "Hg4 mi
9:20 AM36 °FPartly sunny.9 mph87%29.18 "Hg5 mi
8:50 AM36 °FPartly sunny.9 mph87%29.18 "Hg5 mi
8:20 AM36 °FPartly sunny.7 mph87%29.18 "Hg4 mi
7:50 AM34 °FPassing clouds.9 mph93%29.18 "Hg4 mi
7:20 AM34 °FPassing clouds.8 mph93%29.18 "Hg4 mi
6:50 AM34 °FPassing clouds.8 mph93%29.15 "Hg4 mi
6:20 AM34 °FPassing clouds.10 mph93%29.15 "Hg4 mi
5:50 AM34 °FSnow flurries. Passing clouds.9 mph93%29.15 "Hg6 mi
5:20 AM32 °FPartly cloudy.8 mph93%29.15 "HgN/A
4:50 AM34 °FPassing clouds.7 mph93%29.15 "HgN/A
4:20 AM34 °FPassing clouds.8 mph93%29.12 "HgN/A
3:50 AM34 °FPassing clouds.8 mph93%29.12 "HgN/A
3:20 AM34 °FPassing clouds.8 mph93%29.12 "HgN/A
2:50 AM32 °FPartly cloudy.6 mph93%29.12 "HgN/A
2:20 AM34 °FPassing clouds.7 mph87%29.12 "HgN/A
1:50 AM32 °FPassing clouds.6 mph93%29.12 "HgN/A
1:20 AM32 °FPassing clouds.5 mph93%29.12 "HgN/A
12:50 AM30 °FPassing clouds.6 mph93%29.12 "HgN/A
12:20 AM32 °FPassing clouds.6 mph87%29.12 "HgN/A
11:50 PM
Jan 31
32 °FPassing clouds.6 mph93%29.12 "HgN/A
11:20 PM30 °FPassing clouds.6 mph86%29.12 "HgN/A
10:50 PM30 °FPassing clouds.6 mph93%29.12 "HgN/A
10:20 PM30 °FPassing clouds.5 mph93%29.12 "HgN/A
9:50 PM32 °FPassing clouds.6 mph87%29.12 "HgN/A
9:20 PM30 °FPassing clouds.6 mph86%29.12 "HgN/A
8:50 PM30 °FPassing clouds.7 mph86%29.09 "HgN/A
8:20 PM30 °FPassing clouds.6 mph86%29.09 "HgN/A
7:50 PM32 °FClear.7 mph80%29.09 "Hg10 mi
7:20 PM32 °FClear.5 mph80%29.09 "Hg10 mi
6:50 PM32 °FClear.5 mph80%29.06 "Hg10 mi
6:20 PM34 °FClear.5 mph81%29.06 "Hg10 mi
5:50 PM34 °FPassing clouds.7 mph81%29.06 "HgN/A
5:20 PM36 °FPassing clouds.12 mph81%29.06 "HgN/A
4:20 PM41 °FPassing clouds.14 mph66%29.03 "HgN/A
3:50 PM41 °FScattered showers. Passing clouds.8 mph66%29.03 "HgN/A
3:20 PM41 °FScattered showers. Passing clouds.12 mph61%29.00 "HgN/A
Weather by CustomWeather, © 2014

See weather overviewHow to use our weather pages